Terminal Aerodrome Forecast
Issued by NWS Charleston, WV

Current Version | Previous Version | Graphics & Text | Print | Product List | Glossary On
Versions: 1 2 3 4 5 6 7 8 9 10 11 12 13 14 15 16 17 18 19 20 21 22 23 24 25
000
FTUS41 KRLX 210500 RRA
TAFPKB
TAF
KPKB 210545Z 2106/2206 17005KT P6SM SCT070
     FM211400 22008KT 6SM SHRA BR VCTS BKN025CB
     FM211700 23009KT P6SM BKN025
     FM212100 26010KT P6SM BKN035
     FM212300 28010KT P6SM SCT040
     FM220400 30006KT P6SM BKN035=

USA.gov is the U.S. government's official web portal to all federal, state and local government web resources and services.